Miscellaneous Local Product
Issued by NWS Hastings, NE

Home | Current Version | Previous Version | Graphics & Text | Print | Product List | Glossary On
Versions: 1 2 3 4 5 6 7 8 9 10 11 12 13 14 15 16 17 18 19 20 21 22 23 24 25 26 27 28 29 30 31 32 33 34 35 36 37 38 39 40 41 42 43 44 45 46 47 48 49 50
000
AXUS43 KGID 260902
MISGRI

GID CWA HOURLY WEATHER ROUNDUP
NATIONAL WEATHER SERVICE HASTINGS NE
300 AM CST THU FEB 26 2015

NOTE: "FAIR" INDICATES FEW OR NO CLOUDS BELOW 12,000 FEET WITH NO
SIGNIFICANT WEATHER AND/OR OBSTRUCTIONS TO VISIBILITY.

...SOUTH CENTRAL NEBRASKA...

CITY           SKY/WX    TMP DP  RH WIND       PRES   REMARKS
GRAND ISLAND   PTCLDY     7  -1  70 N20       30.37R WCI -13
HASTINGS       PTCLDY     7  -2  66 N18       30.34R WCI -12
KEARNEY        PTCLDY     9   1  72 N17       30.34R WCI -10
ORD            PTCLDY     6  -3  66 N20       30.37R WCI -14
YORK             N/A      7   0  72 N16G33    30.35R WCI -11
AURORA         CLOUDY     8  -1  68 N22       30.35R WCI -13
LEXINGTON      PTCLDY    11   3  70 N14       30.35R WCI  -5
HOLDREGE       MOCLDY    11   1  62 N18G30    30.32R WCI  -6
HEBRON         CLOUDY    10  -1  62 N14G26    30.36R WCI  -6

...NEBRASKA PANHANDLE...

CITY           SKY/WX    TMP DP  RH WIND       PRES   REMARKS
CHADRON        LGT SNOW  11   6  81 NE5       30.34S WCI   3
ALLIANCE       CLOUDY    11   5  77 N10       30.26S WCI  -3
SCOTTSBLUFF    CLOUDY    14   6  70 N8        30.27S WCI   3
SIDNEY         CLOUDY    12   5  73 N13       30.24R WCI  -3

...WESTERN AND NORTH CENTRAL NEBRASKA...

CITY           SKY/WX    TMP DP  RH WIND       PRES   REMARKS
VALENTINE      MOCLDY     4  -2  76 N12       30.38S WCI -12
AINSWORTH      CLOUDY     5   1  83 N8        30.36S WCI  -8
ONEILL         CLEAR      1  -4  77 N15G23    30.40R WCI -18
BROKEN BOW     CLEAR      7  -1  70 N21       30.33S WCI -13
IMPERIAL         N/A     16   5  62 NE17      30.28S WCI   0
NORTH PLATTE   CLOUDY     9   1  70 N6        30.33R WCI  -1
MCCOOK         CLOUDY    18   5  57 N18       30.32R WCI   2

...EASTERN NEBRASKA...

CITY           SKY/WX    TMP DP  RH WIND       PRES   REMARKS
NORFOLK        MOCLDY     3  -4  72 N20       30.37R WCI -18
SO SIOUX CITY  PTCLDY     2  -6  69 N16       30.39S WCI -18
TEKAMAH        CLEAR      4  -5  66 N21G28    30.38R WCI -17
COLUMBUS       CLOUDY     5  -9  51 N22G28    30.38R WCI -16
ALBION         CLOUDY     5  -4  66 N18G26    30.37R WCI -15
OMAHA EPPLEY   PTCLDY     4  -3  73 N24G36    30.35R WCI -19
OFFUTT AFB     PTCLDY     6  -2  70 NW15      30.33S WCI -12
MILLARD        CLOUDY     8   0  71 NW14      30.35R WCI  -9
LINCOLN        MOCLDY     8   0  69 N18       30.37R WCI -11
NEBRASKA CITY  PTCLDY     7  -1  68 N16G25    30.30R WCI -11
BEATRICE       CLOUDY     9   3  77 N22G28    30.32R WCI -11
FALLS CITY     CLEAR     10   2  69 N15G25    30.29R WCI  -7

...NORTHERN KANSAS...

CITY           SKY/WX    TMP DP  RH WIND       PRES   REMARKS
GOODLAND       CLOUDY    16   8  71 N18G25    30.25R WCI   0
HILL CITY      CLOUDY    16   7  67 N10       30.32R WCI   4
NORTON         CLOUDY    16   3  57 N22G28    30.31R WCI  -2
PHILLIPSBURG   CLOUDY    18   9  68 N10G20    30.35R WCI   6
SMITH CENTER   CLOUDY    10   1  67 N23G32    30.34S WCI -10
BELOIT         CLEAR     12   1  62 N15       30.35R WCI  -4
HAYS           CLEAR     16   0  48 N15       30.30S WCI   1
RUSSELL        CLEAR     12   6  77 N15       30.30R WCI  -4
CONCORDIA      MOCLDY    11   4  73 N18G31    30.34R WCI  -7
SALINA         CLOUDY    17   6  62 N22       30.32R WCI   0
TOPEKA         CLOUDY    14   7  73 N13G22    30.26R WCI   0



USA.gov is the U.S. government's official web portal to all federal, state and local government web resources and services.